Find Yaogan 31 hao 04 zu 02 xing

NORAD ID: 47856 Int'l Des: 2021-020 Owner: ZLZB Country: CN Constellation: yaogan operational
LEO

Current View

Loading 3D Globe...

About Yaogan 31 hao 04 zu 02 xing

Description loading...

Upcoming Passes

Passes for default location (London). Set your location on the main map for personalized predictions.

Altitude History

Loading altitude history...

Two-Line Element Set

1 47856U 21020C 26150.99065898 .00000025 00000-0 17735-3 0 9996
2 47856 63.4057 302.9743 0173159 0.5359 359.5822 13.45447225256096
Epoch: May 30, 2026 • Age: 8 hours

Current Status

Altitude 1220.2 km
Velocity 7.18 km/s
Sub-Earth Point -0.67°S, 116.54°E
Launch Date Mar 13, 2021
Age 5.2 years
Type military

Technical Details

Classification Payload
Mass 500.00 kg
Dry Mass 500.00 kg
Total Mass 500.00 kg
Length 0.50 m
Diameter 0.50 m
Span 1.00 m
Shape Box + 2 Pan
Manufacturer DFHZ
Phase Status In Orbit
Owner/State ZLZB/CN

Most Searched